Location: Cormont
(50.5693°N, 1.7416°E)
Time: 10:26:39
(UTC+00:00)

STARLINK-58 - Pass Details

Date: 21 October 2019
Orbit: 548 x 551 km, 53.0° (Epoch: 11 November)

Event Time Altitude Azimuth Distance (km) Brightness Sun altitude
Rises 17:13:58 0° 261° (W) 2,714 10.2 -4.6°
Reaches altitude 10° 17:16:12 10° 264° (W) 1,822 8.2 -4.9°
Maximum altitude 17:20:20 69° 349° (NNW) 590 3.8 -5.6°
Drops below altitude 10° 17:24:28 10° 73° (ENE) 1,827 5.6 -6.2°
Enters shadow 17:24:56 - 74° (ENE) 2,006 5.8 -6.3°
